Regional Weather Roundup
Issued by NWS

Home | Current Version | Previous Version | Graphics & Text | Print | Product List | Glossary Off
Versions: 1 2 3 4 5 6 7 8 9 10 11 12 13 14 15 16 17 18 19 20 21 22 23 24 25 26 27 28 29 30 31 32 33 34 35 36 37 38 39 40 41 42 43 44 45 46 47 48 49 50

000
ASUS43 KMKX 012300
RWRWI

WISCONSIN REGIONAL WEATHER ROUNDUP
NATIONAL WEATHER SERVICE MILWAUKEE/SULLIVAN WI
600 PM CDT FRI AUG 01 2014

NOTE: "FAIR" INDICATES FEW OR NO CLOUDS BELOW 12,000 FEET WITH NO
SIGNIFICANT WEATHER AND/OR OBSTRUCTIONS TO VISIBILITY.

WIZ001-002-006>008-014>016-023>028-020000-
NORTHWEST WISCONSIN

CITY           SKY/WX    TMP DP  RH WIND       PRES   REMARKS
SUPERIOR ARPT  MOSUNNY   62  53  72 NE7       30.06R
ASHLAND        NOT AVBL
HAYWARD        NOT AVBL
SIREN          MOSUNNY   82  54  38 CALM      30.05S HX  81
RICE LAKE      SUNNY     79  55  43 CALM      30.07S
LADYSMITH      MOSUNNY   78  56  46 N7        30.08S
EAU CLAIRE     NOT AVBL
MENOMONIE      CLEAR     82  55  38 NW5       30.04F HX  82
NEW RICHMOND   PTSUNNY   82  55  39 W3        30.06R HX  81
OSCEOLA        MOSUNNY   82  58  43 W3        30.07R HX  82
$$

WIZ003>005-009-010-017-018-020000-
NORTH CENTRAL WISCONSIN

CITY           SKY/WX    TMP DP  RH WIND       PRES   REMARKS
WOODRUFF       MOSUNNY   77  52  41 NW8       30.09S
RHINELANDER    NOT AVBL
EAGLE RIVER    MOSUNNY   75  50  40 N7        30.09R
LAND O LAKES   MOSUNNY   74  50  42 N9        30.10S
PHILLIPS       MOSUNNY   74  55  52 N5        30.09R
TOMAHAWK       MOSUNNY   75  54  47 CALM      30.08R
MEDFORD        MOSUNNY   76  58  54 NW6       30.07S
MERRILL        MOSUNNY   77  61  56 W6        30.07R
$$

WIZ029-030-035-036-043>047-020000-
CENTRAL WISCONSIN

CITY           SKY/WX    TMP DP  RH WIND       PRES   REMARKS
WAUSAU         NOT AVBL
MOSINEE        MOSUNNY   70  63  78 S5        30.09R
MARSHFIELD     NOT AVBL
STEVENS POINT  CLOUDY    63  60  91 S7        30.10S
WAUPACA        CLOUDY    72  58  59 W8        30.07F
WAUTOMA        NOT AVBL
WISC RAPIDS    CLOUDY    66  58  75 SE14G22   30.09F
CAMP DOUGLAS   NOT AVBL
$$

WIZ011>013-019>022-031-037>040-048>050-020000-
NORTHEAST WISCONSIN

CITY           SKY/WX    TMP DP  RH WIND       PRES   REMARKS
ANTIGO         PTSUNNY   74  58  55 CALM      30.08R
STURGEON BAY   CLOUDY    72  63  73 SE5       30.07R
GREEN BAY      NOT AVBL
MANITOWOC      NOT AVBL
APPLETON       NOT AVBL
CLINTONVILLE   CLOUDY    68  61  77 NE3       30.06S
OSHKOSH        NOT AVBL
$$

WIZ032>034-041-042-053>061-020000-
SOUTHWEST WISCONSIN

CITY           SKY/WX    TMP DP  RH WIND       PRES   REMARKS
LA CROSSE      NOT AVBL
SPARTA         MOSUNNY   83  55  38 W6        30.06F HX  82
VIROQUA        FAIR      79  59  50 W3        30.08R HX  80
BOSCOBEL       NOT AVBL
PRAIRIE DU CHI SUNNY     82  52  34 W6        30.04S HX  81
PLATTEVILLE    FAIR      81  58  45 W5        30.07S HX  81
$$

WIZ056-057-062-063-064-067-068-020000-
SOUTH CENTRAL WISCONSIN

CITY           SKY/WX    TMP DP  RH WIND       PRES   REMARKS
BARABOO/DELLS  CLOUDY    71  52  50 CALM      30.08R THUNDER
LONE ROCK      NOT AVBL
WATERTOWN      PTSUNNY   74  61  64 CALM      30.06R THUNDER
MADISON        HAIL      66  54  65 E5        30.09R
MIDDLETON      FAIR      81  54  39 NW3       30.07R HX  81
MONROE         SUNNY     81  52  36 CALM      30.06R THUNDER HX  80
JANESVILLE     MOSUNNY   84  46  26 NW3       30.04S HX  82
$$

WIZ051-052-058>065-066-070>072-020000-
SOUTHEAST WISCONSIN

CITY           SKY/WX    TMP DP  RH WIND       PRES   REMARKS
MILWAUKEE      NOT AVBL
WAUKESHA       CLOUDY    72  57  60 E7G18     30.08R THUNDER
MILWAUKEE/TIMM TSTM      63  54  72 N12       30.10R
RACINE         NOT AVBL
BURLINGTON     PTSUNNY   80  55  42 W3        30.04F HX  80
KENOSHA        NOT AVBL
FOND DU LAC    NOT AVBL
SHEBOYGAN      NOT AVBL
WEST BEND      CLOUDY    70  54  56 SE5       30.10R
JUNEAU         CLOUDY    75  54  47 N6        30.08R THUNDER
$$

LSZ147-162-020000-
LAKE SUPERIOR

STATION/POSITION TIME  TEMP    WIND        PRES    WAVE
                       AIR SEA DIR/SP/G            HT/PER
                 (UTC) (F)     (DEG/KT/KT) (MB)    (FT/S)
W MID LAKE BUOY  2150   53 49   90/  4/  4 1018.8F   0
PORT WING        2200   64      30/ 11/ 14 1017.9S
SAXON HARBOR     2200             CALM     1018.6
$$

LMZ867-665-643>646-020000-
LAKE MICHIGAN

STATION/POSITION TIME  TEMP    WIND        PRES    WAVE
                       AIR SEA DIR/SP/G            HT/PER
                 (UTC) (F)     (DEG/KT/KT) (MB)    (FT/S)
N MID LAKE BUOY  2150   63 62  120/  2/  2 1017.7R   0
NORTHPORT PIER   2200   64     110/  7/  8 1017.6S
SISTER BAY       2211   70     110/ 10/ 13   N/A
ALGOMA LAKESHORE 2151          220/  2/  6   N/A
KEWAUNEE LAKESHO 2200   67     160/  6/  6 1017.1R
SHEBOYGAN LAKESH 2200   70     200/ 11/ 11 1017.8R
PORT WASHINGTON  2200   67     160/  7/ 14 1019.0
ATWATER BUOY     2200   70     160/ 14     1018.2F
MILWAUKEE LAKESH 2200   70     160/ 12/ 15   N/A
S MID LAKE BUOY  2150   68 66  160/  6/  8 1018.1F   0
KENOSHA   LAKESH 2200   70     170/ 10/ 12 1017.3F
$$

TC  - TEMPERATURE IN CELSIUS
VSB - VISIBILITY IN STATUTE MILES
WCI - WIND CHILL INDEX
HX  - HEAT INDEX



USA.gov is the U.S. government's official web portal to all federal, state and local government web resources and services.